Location: Kitchener-Waterloo
(43.4500°N, 80.5000°W)
Time: 00:36:56
(UTC-05:00)

Daily predictions for brighter satellites

Satellite Brightness Start Highest point End
(mag) Time Altitude Azimuth Time Altitude Azimuth Time Altitude Azimuth
ATLAS 2AS CENTAUR R/B 4.2 03:29:02 32° N 03:29:02 32° N 03:34:05 10° NNE
ADEOS II 4.5 03:34:26 10° NNE 03:35:33 17° NNE 03:35:33 17° NNE
CENTAUR R/B 3.1 03:53:27 74° ESE 03:53:27 74° ESE 04:01:10 10° SE
Cosmos 1697 Rocket 4.4 04:02:00 24° SE 04:03:26 27° ESE 04:08:06 10° NE
Cosmos 2227 Rocket 4.3 04:10:02 15° SSE 04:10:02 15° SSE 04:11:00 10° SSE
Okean O Rocket 3.5 04:07:29 10° NNE 04:10:09 28° ENE 04:10:09 28° ENE
Lacrosse 5 rocket 3.9 04:14:46 18° ENE 04:14:46 18° ENE 04:16:08 10° E
Cosmos 2297 Rocket 3.5 04:22:29 29° SSE 04:22:29 29° SSE 04:25:08 10° SSE
Cosmos 2298 Rocket 4.5 04:26:27 58° E 04:26:27 58° E 04:31:30 10° NNE
CZ-4B R/B 4.0 04:24:11 10° NNE 04:29:25 47° E 04:32:44 22° SSE
CZ-3 R/B 3.8 04:27:10 35° SW 04:33:02 42° SSW 04:41:05 10° SE
CZ-4B DEB 4.3 04:36:50 10° NNE 04:42:20 71° ESE 04:44:18 40° S
Cosmos 2150 Rocket 4.0 04:43:18 70° SE 04:43:38 73° ESE 04:48:47 10° NNE
Cosmos 2082 3.9 04:48:38 54° S 04:48:38 54° S 04:53:06 10° SSE
Cosmos 2098 Rocket 4.3 04:49:43 46° NW 04:49:43 46° NW 04:54:59 10° N
Cosmos 1000 Rocket 4.4 04:42:29 10° N 04:48:47 87° E 04:54:59 10° S
IDEFIX/ARIANE 42P 4.4 04:46:08 10° NE 04:50:42 30° E 04:55:14 10° SSE
Cosmos 2278 3.5 04:51:07 73° WSW 04:51:39 81° WNW 04:57:24 10° NNE
Cosmos 2239 Rocket 4.4 04:49:37 10° S 04:55:45 83° E 05:01:55 10° N
COSMOS 2455 4.2 04:51:06 10° NNW 04:56:42 38° NE 05:02:16 10° ESE
PAYLOAD B 4.1 04:52:00 10° NNE 04:57:32 85° WNW 04:59:33 41° SSW
Genesis I 4.0 05:03:48 43° N 05:03:48 43° N 05:06:41 10° NNE
Cosmos 1862 3.8 04:58:54 10° N 05:02:51 60° E 05:06:48 10° SSE
CZ-4B R/B 3.9 05:06:50 10° N 05:11:19 76° WNW 05:11:58 62° SW
Cosmos 1980 Rocket 2.6 05:10:23 10° S 05:15:58 63° ESE 05:21:35 10° NNE
SJ 16-02 2.1 05:12:31 10° S 05:16:48 52° ESE 05:21:07 10° NNE
EXPRESS MD2 4.1 05:17:31 39° NNW 05:18:44 56° NNE 05:25:33 10° ESE
Cosmos 2369 4.0 05:17:54 43° W 05:18:51 47° WNW 05:24:23 10° NNE
ADEOS II 4.0 05:15:21 10° NNW 05:16:31 14° NNW 05:16:31 14° NNW
Cosmos 158 Rocket 3.9 05:15:06 10° NNW 05:20:08 82° ENE 05:25:17 10° SSE
COSMO-SKYMED 1 3.1 05:16:14 10° SSE 05:20:29 60° ENE 05:24:47 10° N
Aureole 1 Rocket 4.1 05:13:26 10° NNW 05:21:04 67° WSW 05:27:00 10° S
Cosmos 1898 Rocket 4.4 05:21:35 31° NW 05:21:35 31° NW 05:25:51 10° N
Cosmos 1656 3.8 05:20:56 43° W 05:21:48 46° WNW 05:27:04 10° NNE
Cosmos 2285 Rocket 4.4 05:21:36 28° WNW 05:24:06 39° W 05:29:58 10° SSW
Meteor 2-10 Rocket 3.3 05:20:58 13° SSW 05:25:28 69° WNW 05:30:29 10° N
Cosmos 1937 Rocket 3.9 05:25:18 38° WNW 05:25:38 38° WNW 05:30:34 10° N
Meteor 1-31 Rocket 3.5 05:23:10 10° N 05:25:52 36° NNW 05:25:52 36° NNW
IRS-1C Rocket 4.0 05:25:26 10° N 05:30:41 65° WNW 05:35:53 10° SSW
Cosmos 1125 Rocket 3.8 05:27:57 10° S 05:33:05 67° ESE 05:38:15 10° NNE
ATLAS 5 CENTAUR R/B 3.8 05:31:23 10° S 05:35:08 27° ESE 05:39:10 10° ENE
Cosmos 372 Rocket 4.1 05:32:48 10° SSW 05:37:53 75° ESE 05:43:01 10° NNE
Cosmos 1869 Rocket 3.9 05:34:44 10° NNW 05:38:54 42° W 05:43:05 10° SSW
CENTAUR R/B 3.9 05:40:44 24° W 05:42:49 26° WSW 05:49:28 10° SSW
Cosmos 1934 Rocket 4.1 05:39:02 10° SSW 05:45:14 56° WNW 05:51:32 10° N
Cosmos 1707 Rocket 3.7 05:41:45 10° SSW 05:46:05 50° WNW 05:50:28 10° N
Cosmos 1697 Rocket 3.0 05:43:48 22° WSW 05:47:08 45° WNW 05:52:32 10° NNE
Okean O Rocket 2.7 05:44:10 10° NNW 05:47:37 24° WNW 05:47:37 24° WNW
SL-16 R/B 3.7 05:42:45 10° S 05:47:57 38° ESE 05:53:09 10° NE
Cosmos 2227 Rocket 4.2 05:51:59 11° SW 05:51:59 11° SW 05:52:15 10° SW
Cosmos 2123 Rocket 4.0 05:44:17 10° NNW 05:50:20 55° W 05:56:24 10° SSW
SKYMED 3 4.5 05:46:11 10° S 05:50:29 65° WSW 05:54:50 10° NNW
Lacrosse 5 rocket 1.6 05:50:28 29° WNW 05:51:58 45° SW 05:55:51 10° SSE
Cosmos 2297 Rocket 3.9 06:04:24 13° WSW 06:04:24 13° WSW 06:05:47 10° SW
Geosat 3.9 06:00:40 10° SSE 06:05:41 77° WSW 06:10:44 10° NNW
BREEZE M DEB (TANK) 2.8 06:06:39 18° NW 06:07:24 22° N 06:09:20 10° NE
SKYMED 2 3.9 06:04:27 10° S 06:08:33 41° W 06:12:41 10° NNW
CZ-4B R/B 4.2 06:05:18 10° N 06:09:42 26° WNW 06:14:09 10° WSW
Cosmos 1269 Rocket 4.0 06:05:48 10° NNW 06:11:04 70° WSW 06:16:18 10° S
Cosmos 1153 Rocket 4.4 06:05:21 10° SSW 06:11:28 76° W 06:17:40 10° N
Cosmos 2242 Rocket 3.6 06:07:28 10° SSW 06:12:01 67° W 06:16:36 10° N
Cosmos 1606 3.7 06:11:02 10° S 06:14:44 50° E 06:18:27 10° NNE
BREEZE-M DEB (TANK) 3.1 06:13:53 14° WNW 06:16:38 81° NNE 06:26:52 10° ESE
Cosmos 1484 Rocket 3.5 06:16:58 10° NNE 06:20:55 60° E 06:24:51 10° S
Cosmos 405 3.5 06:17:52 10° NNW 06:21:12 37° W 06:24:30 10° SSW
Cosmos 494 Rocket 4.2 06:16:55 10° NNW 06:22:04 73° ENE 06:27:10 10° SSE
NOAA 6 4.4 06:17:31 10° N 06:22:21 41° WNW 06:27:08 10° SW
Cosmos 405 Rocket 3.0 06:24:27 10° SSW 06:28:16 45° WNW 06:32:04 10° N
MSX 3.9 06:22:41 10° N 06:28:24 63° WNW 06:34:04 10° SSW
IDEFIX/ARIANE 42P 3.1 06:25:34 10° N 06:30:20 36° WNW 06:35:03 10° SW
Cosmos 1703 Rocket 4.3 06:26:09 10° S 06:30:33 60° E 06:34:59 10° NNE
Ariane Rocket 4.5 06:27:56 10° NNE 06:32:48 43° E 06:37:36 10° S
Meteor 1-25 Rocket 4.2 06:28:53 10° NNW 06:34:34 71° W 06:40:18 10° S
Cosmos 2263 Rocket 2.3 06:29:06 10° NNW 06:34:48 87° ENE 06:40:29 10° SSE
CZ-2C R/B 2.8 06:30:46 10° N 06:35:34 44° WNW 06:40:25 10° SW
Radarsat Rocket 4.1 06:30:13 10° N 06:35:50 51° WNW 06:41:39 10° SW
SJ-12 4.1 06:33:22 10° N 06:37:26 53° WNW 06:41:27 10° SSW
Aureole 3 3.1 06:35:22 10° NNW 06:38:12 38° W 06:41:02 10° SSW
Okean-O 3.5 06:36:55 10° N 06:40:43 29° WNW 06:44:32 10° SW
Meteor 1-4 Rocket 4.4 06:37:48 10° N 06:41:19 37° ENE 06:44:50 10° SE
COSMOS 2455 3.3 06:37:04 10° NW 06:42:40 41° WSW 06:48:15 10° S
Cosmos 1908 Rocket 3.5 06:39:38 10° NNW 06:44:02 69° W 06:48:22 10° S
Cosmos 2322 Rocket 2.2 06:41:55 10° SSW 06:47:35 75° WNW 06:53:19 10° NNE
